Time,TemperatureF,DewpointF,PressureIn,WindDirection,WindDirectionDegrees,WindSpeedMPH,WindSpeedGustMPH,Humidity,HourlyPrecipIn,Conditions,Clouds,dailyrainin,SoftwareType,DateUTC
2013-03-20 00:00:00,29.8,21.9,29.96,North,360,0.0,0.0,72,0.00,FEW,,0.00,WeatherDisplay:10.37,2013-03-20 04:00:00,
2013-03-20 00:05:00,29.9,22.0,29.96,North,360,0.0,0.0,72,0.00,FEW,,0.00,WeatherDisplay:10.37,2013-03-20 04:05:00,
2013-03-20 00:10:00,29.9,22.0,29.95,North,359,0.6,0.0,72,0.00,,FEW050,0.00,VWS V14.01,2013-03-20 04:10:00,
2013-03-20 00:15:00,29.9,22.3,29.95,North,360,0.0,0.0,73,0.00,FEW,,0.00,WeatherDisplay:10.37,2013-03-20 04:15:00,
2013-03-20 00:20:00,29.8,22.0,29.95,North,359,0.2,14.1,72,0.00,,FEW050,0.00,VWS V14.01,2013-03-20 04:20:00,
2013-03-20 00:25:00,29.6,22.0,29.96,North,360,0.0,0.0,73,0.00,FEW,,0.00,WeatherDisplay:10.37,2013-03-20 04:25:00,
2013-03-20 00:30:00,29.7,22.4,29.95,North,359,0.2,0.2,74,0.00,,FEW050,0.00,VWS V14.01,2013-03-20 04:30:00,
2013-03-20 00:35:00,29.5,22.2,29.95,North,360,0.0,0.0,74,0.00,FEW,,0.00,WeatherDisplay:10.37,2013-03-20 04:35:00,
2013-03-20 00:40:00,29.4,22.0,29.95,North,359,5.3,0.0,73,0.00,,FEW050,0.00,VWS V14.01,2013-03-20 04:40:00,
2013-03-20 00:45:00,29.6,22.1,29.95,North,359,5.3,0.0,73,0.00,,FEW050,0.00,VWS V14.01,2013-03-20 04:45:00,
2013-03-20 00:50:00,29.5,22.1,29.95,North,359,5.3,0.0,74,0.00,,FEW050,0.00,VWS V14.01,2013-03-20 04:50:00,
2013-03-20 00:55:00,29.4,22.0,29.95,North,359,4.2,15.0,73,0.00,,SCT044,0.00,VWS V14.01,2013-03-20 04:55:00,
2013-03-20 01:00:00,29.4,22.0,29.95,North,359,1.3,9.8,73,0.00,,SCT044,0.00,VWS V14.01,2013-03-20 05:00:00,
2013-03-20 01:05:00,29.4,21.8,29.95,North,360,0.0,0.0,73,0.00,SCT,,0.00,WeatherDisplay:10.37,2013-03-20 05:05:00,
2013-03-20 01:10:00,29.5,22.1,29.95,North,359,0.6,0.6,74,0.00,,SCT044,0.00,VWS V14.01,2013-03-20 05:10:00,
2013-03-20 01:15:00,29.4,22.1,29.95,North,360,0.0,0.0,74,0.00,SCT,,0.00,WeatherDisplay:10.37,2013-03-20 05:15:00,
2013-03-20 01:20:00,29.3,21.7,29.95,North,359,0.6,0.0,73,0.00,,SCT044,0.00,VWS V14.01,2013-03-20 05:20:00,
2013-03-20 01:25:00,29.5,22.0,29.95,North,359,0.6,0.0,73,0.00,,SCT044,0.00,VWS V14.01,2013-03-20 05:25:00,
2013-03-20 01:30:00,29.4,22.1,29.95,North,359,0.6,0.0,73,0.00,,SCT044,0.00,VWS V14.01,2013-03-20 05:30:00,
2013-03-20 01:35:00,29.3,22.0,29.95,North,359,0.6,0.0,74,0.00,,SCT044,0.00,VWS V14.01,2013-03-20 05:35:00,
2013-03-20 01:40:00,29.2,21.9,29.95,North,360,0.0,0.0,74,0.00,SCT,,0.00,WeatherDisplay:10.37,2013-03-20 05:40:00,
2013-03-20 01:45:00,29.1,21.8,29.95,North,360,0.0,0.0,74,0.00,SCT,,0.00,WeatherDisplay:10.37,2013-03-20 05:45:00,
2013-03-20 01:50:00,29.3,21.9,29.95,North,359,0.6,0.0,74,0.00,,SCT044,0.00,VWS V14.01,2013-03-20 05:50:00,
2013-03-20 01:55:00,29.1,22.2,29.95,North,360,0.0,0.0,75,0.00,SCT,,0.00,WeatherDisplay:10.37,2013-03-20 05:55:00,
2013-03-20 02:00:00,28.9,21.8,29.95,North,359,0.6,0.0,74,0.00,,BKN042,0.00,VWS V14.01,2013-03-20 06:00:00,
2013-03-20 02:05:00,28.9,21.9,29.95,North,359,0.6,0.0,75,0.00,,BKN042,0.00,VWS V14.01,2013-03-20 06:05:00,
2013-03-20 02:10:00,28.9,22.0,29.95,North,360,0.0,0.0,75,0.00,BKN,,0.00,WeatherDisplay:10.37,2013-03-20 06:10:00,
2013-03-20 02:15:00,28.9,21.7,29.95,North,360,0.0,0.0,74,0.00,BKN,,0.00,WeatherDisplay:10.37,2013-03-20 06:15:00,
2013-03-20 02:20:00,29.0,22.1,29.95,North,360,0.0,0.0,75,0.00,BKN,,0.00,WeatherDisplay:10.37,2013-03-20 06:20:00,
2013-03-20 02:25:00,28.7,21.8,29.95,North,360,0.0,0.0,75,0.00,BKN,,0.00,WeatherDisplay:10.37,2013-03-20 06:25:00,
2013-03-20 02:30:00,28.8,21.6,29.95,North,360,12.7,0.0,74,0.00,BKN,,0.00,WeatherDisplay:10.37,2013-03-20 06:30:00,
2013-03-20 02:35:00,28.8,21.9,29.95,North,360,0.0,0.0,75,0.00,BKN,,0.00,WeatherDisplay:10.37,2013-03-20 06:35:00,
2013-03-20 02:40:00,28.8,22.0,29.95,North,359,12.8,0.0,75,0.00,,BKN042,0.00,VWS V14.01,2013-03-20 06:40:00,
2013-03-20 02:45:00,28.5,21.5,29.95,North,359,12.8,0.0,75,0.00,,BKN042,0.00,VWS V14.01,2013-03-20 06:45:00,
2013-03-20 02:50:00,28.7,21.6,29.95,North,359,12.8,0.0,74,0.00,,BKN042,0.00,VWS V14.01,2013-03-20 06:50:00,
2013-03-20 02:55:00,28.5,21.5,29.95,WSW,246,8.4,10.4,75,0.00,,BKN042,0.00,VWS V14.01,2013-03-20 06:55:00,
2013-03-20 03:00:00,28.4,21.4,29.95,SW,232,2.4,8.9,75,0.00,,BKN041,0.00,VWS V14.01,2013-03-20 07:00:00,
2013-03-20 03:05:00,28.4,21.5,29.95,North,360,8.1,8.1,75,0.00,BKN,,0.00,WeatherDisplay:10.37,2013-03-20 07:05:00,
2013-03-20 03:10:00,28.4,21.5,29.95,North,360,0.0,0.5,75,0.00,BKN,,0.00,WeatherDisplay:10.37,2013-03-20 07:10:00,
2013-03-20 03:15:00,28.3,21.4,29.95,North,359,2.4,0.0,75,0.00,,BKN041,0.00,VWS V14.01,2013-03-20 07:15:00,
2013-03-20 03:20:00,28.3,21.4,29.94,North,360,0.0,0.4,75,0.00,BKN,,0.00,WeatherDisplay:10.37,2013-03-20 07:20:00,
2013-03-20 03:25:00,28.2,21.3,29.95,North,360,0.0,0.0,75,0.00,BKN,,0.00,WeatherDisplay:10.37,2013-03-20 07:25:00,
2013-03-20 03:30:00,28.3,21.3,29.94,North,359,0.7,0.0,75,0.00,,BKN041,0.00,VWS V14.01,2013-03-20 07:30:00,
2013-03-20 03:35:00,28.2,21.4,29.94,North,359,0.7,0.0,75,0.00,,BKN041,0.00,VWS V14.01,2013-03-20 07:35:00,
2013-03-20 03:40:00,28.1,21.4,29.94,North,359,0.7,0.0,76,0.00,,BKN041,0.00,VWS V14.01,2013-03-20 07:40:00,
2013-03-20 03:45:00,27.9,21.3,29.94,North,360,0.0,0.0,76,0.00,BKN,,0.00,WeatherDisplay:10.37,2013-03-20 07:45:00,
2013-03-20 03:50:00,28.0,21.5,29.94,North,359,0.7,0.0,76,0.00,,BKN041,0.00,VWS V14.01,2013-03-20 07:50:00,
2013-03-20 03:55:00,28.0,21.3,29.94,North,359,0.7,0.0,76,0.00,,BKN041,0.00,VWS V14.01,2013-03-20 07:55:00,
2013-03-20 04:00:00,27.9,21.3,29.94,North,360,8.1,0.0,76,0.00,BKN,,0.00,WeatherDisplay:10.37,2013-03-20 08:00:00,
2013-03-20 04:05:00,27.7,21.1,29.94,North,360,0.0,0.0,76,0.00,BKN,,0.00,WeatherDisplay:10.37,2013-03-20 08:05:00,
2013-03-20 04:10:00,27.6,21.1,29.94,North,359,7.7,0.0,76,0.00,,BKN040,0.00,VWS V14.01,2013-03-20 08:10:00,
2013-03-20 04:15:00,27.5,21.1,29.94,North,359,7.7,0.0,76,0.00,,BKN040,0.00,VWS V14.01,2013-03-20 08:15:00,
2013-03-20 04:20:00,27.4,20.8,29.94,WSW,254,9.2,9.2,76,0.00,BKN,,0.00,WeatherDisplay:10.37,2013-03-20 08:20:00,
2013-03-20 04:25:00,27.2,20.6,29.93,West,267,9.2,9.2,76,0.00,BKN,,0.00,WeatherDisplay:10.37,2013-03-20 08:25:00,
2013-03-20 04:30:00,27.1,20.8,29.94,North,359,0.9,9.9,77,0.00,,BKN040,0.00,VWS V14.01,2013-03-20 08:30:00,
2013-03-20 04:35:00,27.1,20.8,29.94,North,360,1.1,1.1,77,0.00,BKN,,0.00,WeatherDisplay:10.37,2013-03-20 08:35:00,
2013-03-20 04:40:00,27.1,20.8,29.94,North,360,0.0,0.0,77,0.00,BKN,,0.00,WeatherDisplay:10.37,2013-03-20 08:40:00,
2013-03-20 04:45:00,27.0,20.7,29.94,North,359,8.5,0.0,77,0.00,,BKN040,0.00,VWS V14.01,2013-03-20 08:45:00,
2013-03-20 04:50:00,27.0,20.5,29.94,North,359,8.5,9.8,76,0.00,,BKN040,0.00,VWS V14.01,2013-03-20 08:50:00,
2013-03-20 04:55:00,26.9,20.6,29.94,North,359,8.5,0.0,77,0.00,,BKN040,0.00,VWS V14.01,2013-03-20 08:55:00,
2013-03-20 05:00:00,26.7,20.5,29.94,North,360,0.0,0.6,77,0.00,BKN,,0.00,WeatherDisplay:10.37,2013-03-20 09:00:00,
2013-03-20 05:05:00,26.7,20.2,29.94,WSW,246,8.5,9.3,76,0.00,,OVC039,0.00,VWS V14.01,2013-03-20 09:05:00,
2013-03-20 05:10:00,26.5,19.6,29.94,West,267,9.2,9.2,75,0.00,BKN,,0.00,WeatherDisplay:10.37,2013-03-20 09:10:00,
2013-03-20 05:15:00,26.6,19.8,29.94,SW,233,4.0,8.9,75,0.00,,OVC039,0.00,VWS V14.01,2013-03-20 09:15:00,
2013-03-20 05:20:00,26.7,20.0,29.94,WSW,248,5.7,12.4,75,0.00,,OVC039,0.00,VWS V14.01,2013-03-20 09:20:00,
2013-03-20 05:25:00,26.6,20.1,29.94,WSW,246,4.6,0.0,76,0.00,BKN,,0.00,WeatherDisplay:10.37,2013-03-20 09:25:00,
2013-03-20 05:30:00,26.5,20.0,29.94,WSW,246,0.0,0.0,76,0.00,BKN,,0.00,WeatherDisplay:10.37,2013-03-20 09:30:00,
2013-03-20 05:35:00,26.4,20.2,29.94,WSW,245,2.8,0.0,77,0.00,,OVC039,0.00,VWS V14.01,2013-03-20 09:35:00,
2013-03-20 05:40:00,26.2,20.3,29.94,WSW,246,0.0,0.0,78,0.00,BKN,,0.00,WeatherDisplay:10.37,2013-03-20 09:40:00,
2013-03-20 05:45:00,26.3,20.3,29.94,WSW,245,2.8,0.0,78,0.00,,OVC039,0.00,VWS V14.01,2013-03-20 09:45:00,
2013-03-20 05:50:00,26.4,20.5,29.94,WSW,246,0.0,0.0,78,0.00,BKN,,0.00,WeatherDisplay:10.37,2013-03-20 09:50:00,
2013-03-20 05:55:00,26.4,20.6,29.94,WSW,245,2.8,0.0,78,0.00,,OVC039,0.00,VWS V14.01,2013-03-20 09:55:00,
2013-03-20 06:00:00,26.3,20.4,29.94,WSW,246,0.0,0.0,78,0.00,BKN,,0.00,WeatherDisplay:10.37,2013-03-20 10:00:00,
2013-03-20 06:05:00,26.2,20.6,29.93,WSW,246,0.0,0.0,79,0.00,OVC,,0.00,WeatherDisplay:10.37,2013-03-20 10:05:00,
2013-03-20 06:10:00,26.1,20.5,29.93,WSW,245,2.8,0.0,79,0.00,,BKN085,0.00,VWS V14.01,2013-03-20 10:10:00,
2013-03-20 06:15:00,26.1,20.5,29.93,WSW,245,2.8,0.0,79,0.00,,BKN085,0.00,VWS V14.01,2013-03-20 10:15:00,
2013-03-20 06:20:00,25.9,20.3,29.93,WSW,245,2.8,0.0,79,0.00,,BKN085,0.00,VWS V14.01,2013-03-20 10:20:00,
2013-03-20 06:25:00,26.0,20.4,29.93,WSW,246,0.0,0.0,79,0.00,OVC,,0.00,WeatherDisplay:10.37,2013-03-20 10:25:00,
2013-03-20 06:30:00,25.9,20.3,29.93,WSW,246,0.0,0.0,79,0.00,OVC,,0.00,WeatherDisplay:10.37,2013-03-20 10:30:00,
2013-03-20 06:35:00,25.6,20.0,29.93,WSW,245,2.8,0.0,79,0.00,,BKN085,0.00,VWS V14.01,2013-03-20 10:35:00,
2013-03-20 06:40:00,25.8,20.2,29.93,WSW,246,0.0,0.0,79,0.00,OVC,,0.00,WeatherDisplay:10.37,2013-03-20 10:40:00,
2013-03-20 06:45:00,25.8,20.2,29.93,WSW,245,2.8,0.0,79,0.00,,BKN085,0.00,VWS V14.01,2013-03-20 10:45:00,
2013-03-20 06:50:00,25.6,19.9,29.93,WSW,245,2.8,0.0,79,0.00,,BKN085,0.00,VWS V14.01,2013-03-20 10:50:00,
2013-03-20 06:55:00,25.8,20.2,29.93,WSW,246,0.0,0.0,79,0.00,OVC,,0.00,WeatherDisplay:10.37,2013-03-20 10:55:00,
2013-03-20 07:00:00,25.8,19.9,29.93,WSW,245,2.8,0.0,78,0.00,,SCT070,0.00,VWS V14.01,2013-03-20 11:00:00,
2013-03-20 07:05:00,25.7,19.7,29.93,WSW,245,2.8,0.0,78,0.00,,SCT070,0.00,VWS V14.01,2013-03-20 11:05:00,
2013-03-20 07:10:00,26.0,20.0,29.93,WSW,245,2.8,0.0,78,0.00,,SCT070,0.00,VWS V14.01,2013-03-20 11:10:00,
2013-03-20 07:15:00,26.0,19.9,29.93,WSW,245,2.8,0.0,78,0.00,,SCT070,0.00,VWS V14.01,2013-03-20 11:15:00,
2013-03-20 07:20:00,26.0,20.1,29.93,WSW,246,0.0,0.0,78,0.00,BKN,,0.00,WeatherDisplay:10.37,2013-03-20 11:20:00,
2013-03-20 07:25:00,25.9,20.0,29.93,WSW,246,0.0,0.0,78,0.00,BKN,,0.00,WeatherDisplay:10.37,2013-03-20 11:25:00,
2013-03-20 07:30:00,25.9,20.0,29.93,WSW,245,2.8,0.0,78,0.00,,SCT070,0.00,VWS V14.01,2013-03-20 11:30:00,
2013-03-20 07:35:00,25.7,19.8,29.93,WSW,246,0.0,0.0,78,0.00,BKN,,0.00,WeatherDisplay:10.37,2013-03-20 11:35:00,
2013-03-20 07:40:00,25.7,19.8,29.93,WSW,246,0.0,0.0,78,0.00,BKN,,0.00,WeatherDisplay:10.37,2013-03-20 11:40:00,
2013-03-20 07:45:00,25.8,19.9,29.93,WSW,246,0.0,0.0,78,0.00,BKN,,0.00,WeatherDisplay:10.37,2013-03-20 11:45:00,
2013-03-20 07:50:00,26.0,20.0,29.93,WSW,245,2.8,0.0,78,0.00,,SCT070,0.00,VWS V14.01,2013-03-20 11:50:00,
2013-03-20 07:55:00,26.0,19.9,29.93,WSW,245,2.8,0.0,78,0.00,,BKN075,0.00,VWS V14.01,2013-03-20 11:55:00,
2013-03-20 08:00:00,26.1,20.1,29.93,WSW,245,2.8,0.0,78,0.00,,BKN075,0.00,VWS V14.01,2013-03-20 12:00:00,
2013-03-20 08:05:00,26.3,20.4,29.93,WSW,246,0.0,0.0,78,0.00,SCT,,0.00,WeatherDisplay:10.37,2013-03-20 12:05:00,
2013-03-20 08:10:00,26.2,19.8,29.93,North,359,3.3,9.1,76,0.00,,BKN075,0.00,VWS V14.01,2013-03-20 12:10:00,
2013-03-20 08:15:00,26.4,20.1,29.93,North,359,3.3,0.0,77,0.00,,BKN075,0.00,VWS V14.01,2013-03-20 12:15:00,
2013-03-20 08:20:00,26.4,19.9,29.93,North,360,0.0,0.0,76,0.00,SCT,,0.00,WeatherDisplay:10.37,2013-03-20 12:20:00,
2013-03-20 08:25:00,26.5,19.6,29.93,North,360,0.0,0.0,75,0.00,SCT,,0.00,WeatherDisplay:10.37,2013-03-20 12:25:00,
2013-03-20 08:30:00,26.6,19.9,29.93,North,359,3.3,0.0,75,0.00,,BKN075,0.00,VWS V14.01,2013-03-20 12:30:00,
2013-03-20 08:35:00,26.7,19.5,29.93,SSW,204,6.2,8.4,74,0.00,,BKN075,0.00,VWS V14.01,2013-03-20 12:35:00,
2013-03-20 08:40:00,26.9,20.0,29.93,SE,143,3.5,3.5,75,0.00,SCT,,0.00,WeatherDisplay:10.37,2013-03-20 12:40:00,
2013-03-20 08:45:00,27.0,20.2,29.92,SSW,197,3.5,8.6,75,0.00,,BKN075,0.00,VWS V14.01,2013-03-20 12:45:00,
2013-03-20 08:50:00,27.0,19.8,29.92,SSW,195,5.8,5.8,74,0.00,SCT,,0.00,WeatherDisplay:10.37,2013-03-20 12:50:00,
2013-03-20 08:55:00,27.1,19.9,29.92,SSW,193,8.1,8.1,74,0.00,SCT,,0.00,WeatherDisplay:10.37,2013-03-20 12:55:00,
2013-03-20 09:00:00,27.1,20.0,29.92,West,263,4.7,9.3,74,0.00,,SCT250,0.00,VWS V14.01,2013-03-20 13:00:00,
2013-03-20 09:05:00,27.3,20.4,29.93,WSW,250,9.2,9.2,75,0.00,BKN,,0.00,WeatherDisplay:10.37,2013-03-20 13:05:00,
2013-03-20 09:10:00,27.0,19.5,29.93,SW,226,12.7,12.7,73,0.00,BKN,,0.00,WeatherDisplay:10.37,2013-03-20 13:10:00,
2013-03-20 09:15:00,26.7,19.3,29.93,SW,225,3.6,14.6,73,0.00,,SCT250,0.00,VWS V14.01,2013-03-20 13:15:00,
2013-03-20 09:20:00,26.7,19.3,29.92,WSW,255,0.2,12.1,73,0.00,,SCT250,0.00,VWS V14.01,2013-03-20 13:20:00,
2013-03-20 09:25:00,26.8,19.9,29.93,SW,230,4.6,0.0,75,0.00,BKN,,0.00,WeatherDisplay:10.37,2013-03-20 13:25:00,
2013-03-20 09:30:00,26.9,19.9,29.92,WSW,238,5.8,14.0,75,0.00,,SCT250,0.00,VWS V14.01,2013-03-20 13:30:00,
2013-03-20 09:35:00,26.9,20.3,29.92,WSW,253,11.5,11.5,76,0.00,BKN,,0.00,WeatherDisplay:10.37,2013-03-20 13:35:00,
2013-03-20 09:40:00,27.1,20.8,29.92,North,360,9.2,9.2,77,0.00,BKN,,0.00,WeatherDisplay:10.37,2013-03-20 13:40:00,
2013-03-20 09:45:00,26.9,21.0,29.93,North,360,3.5,3.5,78,0.00,BKN,,0.00,WeatherDisplay:10.37,2013-03-20 13:45:00,
2013-03-20 09:50:00,26.9,21.2,29.92,North,359,0.5,0.5,80,0.00,,SCT250,0.00,VWS V14.01,2013-03-20 13:50:00,
2013-03-20 09:55:00,26.5,21.6,29.92,West,259,5.2,9.6,82,0.00,,BKN060,0.00,VWS V14.01,2013-03-20 13:55:00,
2013-03-20 10:00:00,26.5,21.8,29.92,North,359,0.2,10.1,82,0.00,,BKN060,0.00,VWS V14.01,2013-03-20 14:00:00,
2013-03-20 10:05:00,26.5,22.0,29.92,SW,232,8.1,8.1,83,0.00,BKN,,0.00,WeatherDisplay:10.37,2013-03-20 14:05:00,
2013-03-20 10:10:00,26.4,21.9,29.92,WSW,244,10.4,10.4,83,0.00,BKN,,0.00,WeatherDisplay:10.37,2013-03-20 14:10:00,
2013-03-20 10:15:00,26.4,21.9,29.93,WSW,247,0.0,0.0,83,0.00,BKN,,0.00,WeatherDisplay:10.37,2013-03-20 14:15:00,
2013-03-20 10:20:00,26.7,22.0,29.92,WSW,257,6.6,9.8,82,0.00,,BKN060,0.00,VWS V14.01,2013-03-20 14:20:00,
2013-03-20 10:25:00,27.0,22.2,29.92,West,263,9.4,9.4,82,0.00,BKN,,0.00,WeatherDisplay:10.37,2013-03-20 14:25:00,
2013-03-20 10:30:00,27.1,22.7,29.92,SW,229,5.0,10.9,83,0.00,,BKN060,0.00,VWS V14.01,2013-03-20 14:30:00,
2013-03-20 10:35:00,27.0,22.2,29.92,SW,229,5.0,0.0,82,0.00,,BKN060,0.00,VWS V14.01,2013-03-20 14:35:00,
2013-03-20 10:40:00,26.9,22.1,29.92,SW,230,0.0,0.0,82,0.00,BKN,,0.00,WeatherDisplay:10.37,2013-03-20 14:40:00,
2013-03-20 10:45:00,26.8,20.9,29.92,WSW,248,6.5,12.7,78,0.00,,BKN060,0.00,VWS V14.01,2013-03-20 14:45:00,
2013-03-20 10:50:00,27.1,21.5,29.92,WSW,248,6.5,0.0,79,0.00,,BKN060,0.00,VWS V14.01,2013-03-20 14:50:00,
2013-03-20 10:55:00,26.7,21.7,29.92,WSW,248,0.0,0.0,81,0.00,BKN,,0.00,WeatherDisplay:10.37,2013-03-20 14:55:00,
2013-03-20 11:00:00,27.0,22.2,29.92,WSW,248,6.5,0.0,81,0.00,,OVC045,0.00,VWS V14.01,2013-03-20 15:00:00,
2013-03-20 11:05:00,27.1,21.5,29.92,WSW,248,0.0,0.0,79,0.00,BKN,,0.00,WeatherDisplay:10.37,2013-03-20 15:05:00,
2013-03-20 11:10:00,27.2,21.8,29.92,North,360,0.0,0.0,80,0.00,BKN,,0.00,WeatherDisplay:10.37,2013-03-20 15:10:00,
2013-03-20 11:15:00,27.9,22.2,29.92,SW,219,6.9,6.9,79,0.00,BKN,,0.00,WeatherDisplay:10.37,2013-03-20 15:15:00,
2013-03-20 11:20:00,28.8,22.7,29.92,SW,221,7.3,12.7,78,0.00,,OVC045,0.00,VWS V14.01,2013-03-20 15:20:00,
2013-03-20 11:25:00,28.6,22.3,29.92,SW,230,12.7,0.0,77,0.00,BKN,,0.00,WeatherDisplay:10.37,2013-03-20 15:25:00,
2013-03-20 11:30:00,28.4,21.7,29.92,North,359,1.8,14.5,76,0.00,,OVC045,0.00,VWS V14.01,2013-03-20 15:30:00,
2013-03-20 11:35:00,28.4,21.7,29.92,North,359,2.4,13.7,76,0.00,,OVC045,0.00,VWS V14.01,2013-03-20 15:35:00,
2013-03-20 11:40:00,28.4,21.2,29.92,North,360,0.0,0.0,74,0.00,BKN,,0.00,WeatherDisplay:10.37,2013-03-20 15:40:00,
2013-03-20 11:45:00,28.4,21.7,29.92,North,359,1.7,0.0,76,0.00,,OVC045,0.00,VWS V14.01,2013-03-20 15:45:00,
2013-03-20 11:50:00,28.7,21.5,29.91,North,360,0.0,0.0,74,0.00,BKN,,0.00,WeatherDisplay:10.37,2013-03-20 15:50:00,
2013-03-20 11:55:00,28.7,20.5,29.91,North,360,0.0,0.0,71,0.00,BKN,,0.00,WeatherDisplay:10.37,2013-03-20 15:55:00,
2013-03-20 12:00:00,29.0,20.3,29.91,North,359,0.2,1.9,70,0.00,,,0.00,VWS V14.01,2013-03-20 16:00:00,
2013-03-20 12:05:00,28.4,19.5,29.91,North,360,0.0,0.0,69,0.00,-SN,,0.00,WeatherDisplay:10.37,2013-03-20 16:05:00,
2013-03-20 12:10:00,28.5,20.3,29.90,North,360,0.0,0.0,71,0.00,-SN,,0.00,WeatherDisplay:10.37,2013-03-20 16:10:00,
2013-03-20 12:15:00,28.4,20.6,29.91,North,359,0.2,0.0,72,0.00,,,0.00,VWS V14.01,2013-03-20 16:15:00,
2013-03-20 12:20:00,28.5,20.6,29.91,North,360,0.0,0.0,72,0.00,-SN,,0.00,WeatherDisplay:10.37,2013-03-20 16:20:00,
2013-03-20 12:25:00,29.3,19.3,29.91,North,360,12.7,12.7,66,0.00,-SN,,0.00,WeatherDisplay:10.37,2013-03-20 16:25:00,
2013-03-20 12:30:00,28.9,20.0,29.90,North,359,8.3,8.3,69,0.00,,,0.00,VWS V14.01,2013-03-20 16:30:00,
2013-03-20 12:35:00,28.7,19.8,29.91,North,360,0.0,0.1,69,0.00,-SN,,0.00,WeatherDisplay:10.37,2013-03-20 16:35:00,
2013-03-20 12:40:00,28.7,20.0,29.91,North,359,1.1,16.0,69,0.00,,,0.00,VWS V14.01,2013-03-20 16:40:00,
2013-03-20 12:45:00,29.1,19.4,29.90,North,359,0.2,11.8,66,0.00,,,0.00,VWS V14.01,2013-03-20 16:45:00,
2013-03-20 12:50:00,28.5,19.3,29.90,North,360,0.0,1.1,68,0.00,-SN,,0.00,WeatherDisplay:10.37,2013-03-20 16:50:00,
2013-03-20 12:55:00,28.4,20.8,29.90,West,264,0.0,0.0,73,0.00,-SN,,0.00,WeatherDisplay:10.37,2013-03-20 16:55:00,
2013-03-20 13:00:00,28.1,19.9,29.90,WSW,248,6.9,0.0,71,0.00,-SN,,0.00,WeatherDisplay:10.37,2013-03-20 17:00:00,
2013-03-20 13:05:00,28.2,20.6,29.90,North,359,0.5,2.4,73,0.00,,,0.00,VWS V14.01,2013-03-20 17:05:00,
2013-03-20 13:10:00,28.2,20.5,29.90,North,359,0.5,0.0,73,0.00,,,0.00,VWS V14.01,2013-03-20 17:10:00,
2013-03-20 13:15:00,28.2,19.7,29.90,North,360,1.1,1.1,70,0.00,-SN,,0.00,WeatherDisplay:10.37,2013-03-20 17:15:00,
2013-03-20 13:20:00,28.3,18.7,29.90,North,360,0.0,0.0,67,0.00,-SN,,0.00,WeatherDisplay:10.37,2013-03-20 17:20:00,
2013-03-20 13:24:00,28.2,20.1,29.90,North,359,0.6,0.0,71,0.00,,,0.00,VWS V14.01,2013-03-20 17:24:00,
2013-03-20 13:29:00,27.9,20.0,29.90,North,360,0.0,0.0,72,0.00,-SN,,0.00,WeatherDisplay:10.37,2013-03-20 17:29:00,
2013-03-20 13:34:00,28.5,20.8,29.90,North,359,0.2,1.5,72,0.00,,,0.00,VWS V14.01,2013-03-20 17:34:00,
2013-03-20 13:39:00,29.1,19.5,29.90,North,360,0.0,0.0,67,0.00,-SN,,0.00,WeatherDisplay:10.37,2013-03-20 17:39:00,
2013-03-20 13:44:00,29.1,21.6,29.89,North,359,0.2,0.0,73,0.00,,,0.00,VWS V14.01,2013-03-20 17:44:00,
2013-03-20 13:49:00,28.1,22.4,29.90,North,360,0.0,0.0,79,0.00,-SN,,0.00,WeatherDisplay:10.37,2013-03-20 17:49:00,
2013-03-20 13:54:00,28.2,22.8,29.90,North,360,0.0,0.0,80,0.00,-SN,,0.00,WeatherDisplay:10.37,2013-03-20 17:54:00,
2013-03-20 13:59:00,27.7,22.9,29.90,North,360,0.0,0.0,82,0.00,-SN,,0.00,WeatherDisplay:10.37,2013-03-20 17:59:00,
2013-03-20 14:04:00,27.4,22.2,29.90,WSW,246,12.2,12.2,80,0.00,,,0.00,VWS V14.01,2013-03-20 18:04:00,
2013-03-20 14:09:00,28.4,22.5,29.89,WSW,246,0.2,0.2,78,0.00,,,0.00,VWS V14.01,2013-03-20 18:09:00,
2013-03-20 14:14:00,28.3,22.5,29.89,WSW,246,0.2,0.0,78,0.00,,,0.00,VWS V14.01,2013-03-20 18:14:00,
2013-03-20 14:19:00,27.9,23.1,29.89,North,360,1.1,0.0,82,0.00,-SN,,0.00,WeatherDisplay:10.37,2013-03-20 18:19:00,
2013-03-20 14:25:00,28.0,23.2,29.89,North,360,0.0,0.3,82,0.00,-SN,,0.00,WeatherDisplay:10.37,2013-03-20 18:25:00,
2013-03-20 14:30:00,28.5,22.8,29.89,North,360,0.0,0.0,79,0.00,-SN,,0.00,WeatherDisplay:10.37,2013-03-20 18:30:00,
2013-03-20 14:35:00,28.4,21.9,29.89,North,359,2.6,9.8,76,0.00,,,0.00,VWS V14.01,2013-03-20 18:35:00,
2013-03-20 14:40:00,27.9,23.0,29.89,North,359,2.6,0.0,82,0.00,,,0.00,VWS V14.01,2013-03-20 18:40:00,
2013-03-20 14:45:00,27.3,22.7,29.89,WSW,246,9.3,12.6,82,0.00,,,0.00,VWS V14.01,2013-03-20 18:45:00,
2013-03-20 14:50:00,27.8,22.4,29.88,North,360,9.2,0.0,80,0.00,-SN,,0.00,WeatherDisplay:10.37,2013-03-20 18:50:00,
2013-03-20 14:55:00,28.3,21.9,29.88,North,359,1.2,0.0,77,0.00,,,0.00,VWS V14.01,2013-03-20 18:55:00,
2013-03-20 15:00:00,28.6,21.5,29.88,North,359,1.2,0.0,74,0.00,,,0.00,VWS V14.01,2013-03-20 19:00:00,
2013-03-20 15:05:00,28.0,22.8,29.88,SW,222,11.8,12.7,81,0.00,,,0.00,VWS V14.01,2013-03-20 19:05:00,
2013-03-20 15:10:00,28.0,23.5,29.88,SW,223,0.0,0.0,83,0.00,-SN,,0.00,WeatherDisplay:10.37,2013-03-20 19:10:00,
2013-03-20 15:15:00,28.2,23.0,29.88,SW,222,1.1,1.1,81,0.00,,,0.00,VWS V14.01,2013-03-20 19:15:00,
2013-03-20 15:19:00,28.2,22.5,29.88,North,360,13.8,13.8,79,0.00,-SN,,0.00,WeatherDisplay:10.37,2013-03-20 19:19:00,
2013-03-20 15:24:00,27.9,23.4,29.88,North,359,2.5,2.5,83,0.00,,,0.00,VWS V14.01,2013-03-20 19:24:00,
2013-03-20 15:29:00,27.9,24.2,29.88,WSW,248,8.8,8.8,86,0.00,,,0.00,VWS V14.01,2013-03-20 19:29:00,
2013-03-20 15:34:00,28.0,23.8,29.88,WSW,248,0.0,0.0,84,0.00,-SN,,0.00,WeatherDisplay:10.37,2013-03-20 19:34:00,
2013-03-20 15:39:00,28.3,23.8,29.88,WSW,248,0.0,0.0,83,0.00,-SN,,0.00,WeatherDisplay:10.37,2013-03-20 19:39:00,
2013-03-20 15:44:00,28.4,25.3,29.88,WSW,248,0.0,0.0,88,0.00,-SN,,0.00,WeatherDisplay:10.37,2013-03-20 19:44:00,
2013-03-20 15:49:00,27.4,25.3,29.88,North,359,0.4,0.4,92,0.00,,,0.00,VWS V14.01,2013-03-20 19:49:00,
2013-03-20 15:54:00,27.1,25.1,29.88,North,360,0.0,0.1,92,0.00,-SN,,0.00,WeatherDisplay:10.37,2013-03-20 19:54:00,
2013-03-20 15:59:00,27.2,25.2,29.88,North,360,0.0,0.0,92,0.00,-SN,,0.00,WeatherDisplay:10.37,2013-03-20 19:59:00,
2013-03-20 16:05:00,27.8,23.9,29.88,North,360,0.0,0.0,85,0.00,-SN,,0.00,WeatherDisplay:10.37,2013-03-20 20:05:00,
2013-03-20 16:10:00,27.8,22.7,29.88,WSW,239,0.0,1.6,81,0.00,-SN,,0.00,WeatherDisplay:10.37,2013-03-20 20:10:00,
2013-03-20 16:14:00,27.8,22.4,29.88,North,359,5.5,19.2,80,0.00,,,0.00,VWS V14.01,2013-03-20 20:14:00,
2013-03-20 16:19:00,27.3,21.9,29.88,North,360,1.1,1.1,80,0.00,-SN,,0.00,WeatherDisplay:10.37,2013-03-20 20:19:00,
2013-03-20 16:24:00,27.7,21.9,29.87,North,359,2.1,9.3,78,0.00,,,0.00,VWS V14.01,2013-03-20 20:24:00,
2013-03-20 16:29:00,27.9,21.3,29.88,North,360,0.0,0.0,76,0.00,-SN,,0.00,WeatherDisplay:10.37,2013-03-20 20:29:00,
2013-03-20 16:34:00,28.0,21.4,29.88,North,360,0.0,0.3,76,0.00,-SN,,0.00,WeatherDisplay:10.37,2013-03-20 20:34:00,
2013-03-20 16:40:00,28.0,22.0,29.88,North,360,0.0,0.0,78,0.00,-SN,,0.00,WeatherDisplay:10.37,2013-03-20 20:40:00,
2013-03-20 16:45:00,27.7,22.5,29.87,North,359,0.4,0.4,80,0.00,,,0.00,VWS V14.01,2013-03-20 20:45:00,
2013-03-20 16:49:00,27.6,22.5,29.87,North,359,0.4,0.0,81,0.00,,,0.00,VWS V14.01,2013-03-20 20:49:00,
2013-03-20 16:54:00,27.4,22.9,29.88,North,360,0.0,0.0,83,0.00,-SN,,0.00,WeatherDisplay:10.37,2013-03-20 20:54:00,
2013-03-20 17:00:00,27.5,22.5,29.87,North,359,0.4,0.0,81,0.00,,,0.00,VWS V14.01,2013-03-20 21:00:00,
2013-03-20 17:05:00,27.5,22.1,29.87,North,360,0.8,0.0,80,0.00,-SN,,0.00,WeatherDisplay:10.37,2013-03-20 21:05:00,
2013-03-20 17:10:00,27.5,21.5,29.87,North,360,11.5,11.5,78,0.00,-SN,,0.00,WeatherDisplay:10.37,2013-03-20 21:10:00,
2013-03-20 17:15:00,27.6,21.7,29.87,North,359,0.6,0.6,78,0.00,,,0.00,VWS V14.01,2013-03-20 21:15:00,
2013-03-20 17:20:00,27.7,21.6,29.87,North,359,0.6,0.0,77,0.00,,,0.00,VWS V14.01,2013-03-20 21:20:00,
2013-03-20 17:25:00,28.1,22.4,29.87,North,360,0.0,0.0,79,0.00,-SN,,0.00,WeatherDisplay:10.37,2013-03-20 21:25:00,
2013-03-20 17:30:00,27.8,22.4,29.87,North,359,0.6,0.0,80,0.00,,,0.00,VWS V14.01,2013-03-20 21:30:00,
2013-03-20 17:34:00,27.7,22.3,29.87,North,360,0.0,0.0,80,0.00,-SN,,0.00,WeatherDisplay:10.37,2013-03-20 21:34:00,
2013-03-20 17:39:00,27.2,22.0,29.87,WSW,256,10.4,0.0,81,0.00,,,0.00,VWS V14.01,2013-03-20 21:39:00,
2013-03-20 17:44:00,27.2,22.3,29.87,WSW,256,10.4,14.3,81,0.00,,,0.00,VWS V14.01,2013-03-20 21:44:00,
2013-03-20 17:49:00,27.0,22.8,29.88,WSW,257,0.0,0.0,84,0.00,-SN,,0.00,WeatherDisplay:10.37,2013-03-20 21:49:00,
2013-03-20 17:54:00,26.6,23.0,29.88,West,263,9.4,9.4,86,0.00,-SN,,0.00,WeatherDisplay:10.37,2013-03-20 21:54:00,
2013-03-20 17:59:00,26.5,22.6,29.87,West,273,8.9,12.3,85,0.00,,,0.00,VWS V14.01,2013-03-20 21:59:00,
2013-03-20 18:04:00,26.7,22.5,29.88,North,360,6.9,6.9,84,0.00,-SN,,0.00,WeatherDisplay:10.37,2013-03-20 22:04:00,
2013-03-20 18:09:00,26.8,21.2,29.88,WSW,241,10.4,10.4,79,0.00,-SN,,0.00,WeatherDisplay:10.37,2013-03-20 22:09:00,
2013-03-20 18:14:00,26.8,21.5,29.88,WSW,240,5.7,10.9,80,0.00,,,0.00,VWS V14.01,2013-03-20 22:14:00,
2013-03-20 18:19:00,26.8,21.2,29.87,SW,226,8.8,12.7,79,0.00,,,0.00,VWS V14.01,2013-03-20 22:19:00,
2013-03-20 18:24:00,27.0,21.9,29.88,SW,232,0.0,0.0,81,0.00,-SN,,0.00,WeatherDisplay:10.37,2013-03-20 22:24:00,
2013-03-20 18:29:00,27.1,20.5,29.88,WSW,246,10.4,10.4,76,0.00,-SN,,0.00,WeatherDisplay:10.37,2013-03-20 22:29:00,
2013-03-20 18:34:00,27.3,20.1,29.88,WSW,237,12.7,12.7,74,0.00,-SN,,0.00,WeatherDisplay:10.37,2013-03-20 22:34:00,
2013-03-20 18:39:00,27.1,20.7,29.88,North,359,0.2,12.2,76,0.00,,,0.00,VWS V14.01,2013-03-20 22:39:00,
2013-03-20 18:44:00,26.3,21.0,29.88,WSW,247,13.8,13.8,80,0.00,-SN,,0.00,WeatherDisplay:10.37,2013-03-20 22:44:00,
2013-03-20 18:49:00,26.0,20.8,29.88,WSW,256,5.3,15.7,80,0.00,,,0.00,VWS V14.01,2013-03-20 22:49:00,
2013-03-20 18:54:00,26.3,21.3,29.88,SSW,205,1.1,14.7,81,0.00,,,0.00,VWS V14.01,2013-03-20 22:54:00,
2013-03-20 18:59:00,26.0,21.5,29.88,WSW,247,10.4,10.4,83,0.00,-SN,,0.00,WeatherDisplay:10.37,2013-03-20 22:59:00,
2013-03-20 19:04:00,26.0,21.5,29.88,WSW,247,0.0,0.0,83,0.00,-SN,,0.00,WeatherDisplay:10.37,2013-03-20 23:04:00,
2013-03-20 19:09:00,25.9,20.2,29.88,WSW,246,5.4,0.0,79,0.00,,,0.00,VWS V14.01,2013-03-20 23:09:00,
2013-03-20 19:14:00,25.9,20.0,29.89,SSW,208,4.6,0.0,78,0.00,-SN,,0.00,WeatherDisplay:10.37,2013-03-20 23:14:00,
2013-03-20 19:19:00,25.7,19.8,29.89,SW,218,2.3,9.6,78,0.00,,,0.00,VWS V14.01,2013-03-20 23:19:00,
2013-03-20 19:24:00,25.9,20.6,29.89,SW,232,8.1,8.1,80,0.00,-SN,,0.00,WeatherDisplay:10.37,2013-03-20 23:24:00,
2013-03-20 19:29:00,25.6,20.6,29.89,West,274,3.5,3.5,81,0.00,-SN,,0.00,WeatherDisplay:10.37,2013-03-20 23:29:00,
2013-03-20 19:34:00,25.4,20.5,29.89,WSW,256,8.4,11.1,81,0.00,,,0.00,VWS V14.01,2013-03-20 23:34:00,
2013-03-20 19:39:00,25.3,20.3,29.89,SW,232,9.2,9.2,81,0.00,-SN,,0.00,WeatherDisplay:10.37,2013-03-20 23:39:00,
2013-03-20 19:44:00,25.3,20.0,29.89,North,360,8.1,8.1,80,0.00,-SN,,0.00,WeatherDisplay:10.37,2013-03-20 23:44:00,
2013-03-20 19:49:00,25.4,20.1,29.89,North,359,5.1,15.2,80,0.00,,,0.00,VWS V14.01,2013-03-20 23:49:00,
2013-03-20 19:54:00,25.3,19.9,29.89,North,359,5.1,0.0,80,0.00,,,0.00,VWS V14.01,2013-03-20 23:54:00,
2013-03-20 19:59:00,24.8,19.5,29.90,WSW,239,13.8,13.8,80,0.00,-SN,,0.00,WeatherDisplay:10.37,2013-03-20 23:59:00,
2013-03-20 20:04:00,24.1,19.4,29.90,WSW,247,12.7,12.7,82,0.00,-SN,,0.00,WeatherDisplay:10.37,2013-03-21 00:04:00,
2013-03-20 20:09:00,24.1,19.1,29.90,SW,234,9.2,9.2,81,0.00,-SN,,0.00,WeatherDisplay:10.37,2013-03-21 00:09:00,
2013-03-20 20:14:00,24.3,19.6,29.90,North,360,0.0,0.0,82,0.00,-SN,,0.00,WeatherDisplay:10.37,2013-03-21 00:14:00,
2013-03-20 20:19:00,24.2,19.2,29.89,WSW,239,9.2,9.2,81,0.00,-SN,,0.00,WeatherDisplay:10.37,2013-03-21 00:19:00,
2013-03-20 20:24:00,24.5,19.7,29.89,WSW,238,0.2,9.8,82,0.00,,,0.00,VWS V14.01,2013-03-21 00:24:00,
2013-03-20 20:29:00,24.5,19.9,29.89,WSW,238,0.2,0.0,82,0.00,,,0.00,VWS V14.01,2013-03-21 00:29:00,
2013-03-20 20:34:00,24.2,20.1,29.90,WSW,239,0.0,0.0,84,0.00,-SN,,0.00,WeatherDisplay:10.37,2013-03-21 00:34:00,
2013-03-20 20:39:00,24.2,20.1,29.89,WSW,238,0.2,0.0,84,0.00,,,0.00,VWS V14.01,2013-03-21 00:39:00,
2013-03-20 20:44:00,24.1,19.7,29.90,WSW,239,0.0,0.0,83,0.00,-SN,,0.00,WeatherDisplay:10.37,2013-03-21 00:44:00,
2013-03-20 20:49:00,24.3,20.7,29.90,WSW,239,0.0,0.0,86,0.00,-SN,,0.00,WeatherDisplay:10.37,2013-03-21 00:49:00,
2013-03-20 20:54:00,23.6,21.0,29.90,SW,235,13.4,0.0,90,0.00,,,0.00,VWS V14.01,2013-03-21 00:54:00,
2013-03-20 20:59:00,23.4,21.2,29.91,West,261,9.2,9.2,91,0.00,-SN,,0.00,WeatherDisplay:10.37,2013-03-21 00:59:00,
2013-03-20 21:04:00,23.0,20.8,29.91,West,260,17.3,17.3,91,0.00,-SN,,0.00,WeatherDisplay:10.37,2013-03-21 01:04:00,
2013-03-20 21:09:00,22.9,20.7,29.91,WSW,249,5.0,20.3,91,0.00,,,0.00,VWS V14.01,2013-03-21 01:09:00,
2013-03-20 21:14:00,22.7,20.2,29.91,West,277,8.1,8.1,90,0.00,-SN,,0.00,WeatherDisplay:10.37,2013-03-21 01:14:00,
2013-03-20 21:19:00,22.6,20.0,29.91,West,264,10.1,14.4,89,0.00,,,0.00,VWS V14.01,2013-03-21 01:19:00,
2013-03-20 21:24:00,22.5,19.7,29.91,WSW,251,10.4,10.4,89,0.00,-SN,,0.00,WeatherDisplay:10.37,2013-03-21 01:24:00,
2013-03-20 21:29:00,22.3,19.6,29.91,SW,225,7.1,12.8,89,0.00,,,0.00,VWS V14.01,2013-03-21 01:29:00,
2013-03-20 21:34:00,22.4,19.6,29.91,WSW,243,8.1,8.1,89,0.00,-SN,,0.00,WeatherDisplay:10.37,2013-03-21 01:34:00,
2013-03-20 21:39:00,22.5,20.0,29.92,West,267,8.1,8.1,90,0.00,-SN,,0.00,WeatherDisplay:10.37,2013-03-21 01:39:00,
2013-03-20 21:44:00,22.1,20.6,29.92,West,270,12.7,12.7,94,0.00,-SN,,0.00,WeatherDisplay:10.37,2013-03-21 01:44:00,
2013-03-20 21:49:00,21.4,20.7,29.92,WNW,285,7.9,16.8,97,0.00,,,0.00,VWS V14.01,2013-03-21 01:49:00,
2013-03-20 21:54:00,21.1,20.1,29.92,WSW,255,7.3,14.7,96,0.00,,,0.00,VWS V14.01,2013-03-21 01:54:00,
2013-03-20 21:59:00,21.2,20.2,29.91,WSW,248,4.0,12.5,96,0.00,,,0.00,VWS V14.01,2013-03-21 01:59:00,
2013-03-20 22:04:00,21.0,20.0,29.91,WSW,257,10.4,10.4,96,0.01,-SN,,0.01,WeatherDisplay:10.37,2013-03-21 02:04:00,
2013-03-20 22:09:00,21.2,20.1,29.91,SW,228,3.8,10.4,95,0.00,,,0.00,VWS V14.01,2013-03-21 02:09:00,
2013-03-20 22:14:00,21.0,19.9,29.91,West,270,4.8,9.3,96,0.00,,,0.00,VWS V14.01,2013-03-21 02:14:00,
2013-03-20 22:19:00,21.1,19.9,29.91,West,267,0.0,0.1,95,0.01,-SN,,0.01,WeatherDisplay:10.37,2013-03-21 02:19:00,
2013-03-20 22:24:00,20.7,19.3,29.91,WSW,238,3.7,6.6,94,0.00,,,0.00,VWS V14.01,2013-03-21 02:24:00,
2013-03-20 22:29:00,20.9,19.2,29.91,SW,236,5.0,6.3,93,0.00,,,0.00,VWS V14.01,2013-03-21 02:29:00,
2013-03-20 22:34:00,21.0,18.8,29.91,WSW,237,0.0,0.0,91,0.01,-SN,,0.01,WeatherDisplay:10.37,2013-03-21 02:34:00,
2013-03-20 22:39:00,21.0,18.7,29.91,SW,236,5.0,0.0,91,0.00,,,0.00,VWS V14.01,2013-03-21 02:39:00,
2013-03-20 22:44:00,20.8,18.3,29.91,SW,236,6.9,6.9,90,0.01,-SN,,0.01,WeatherDisplay:10.37,2013-03-21 02:44:00,
2013-03-20 22:49:00,20.9,18.1,29.91,WSW,248,5.7,9.8,89,0.00,,,0.00,VWS V14.01,2013-03-21 02:49:00,
2013-03-20 22:54:00,20.7,18.0,29.91,WSW,248,5.7,7.7,89,0.00,,,0.00,VWS V14.01,2013-03-21 02:54:00,
2013-03-20 22:59:00,20.7,18.0,29.91,WSW,254,5.5,5.5,89,0.01,-SN,,0.01,WeatherDisplay:10.37,2013-03-21 02:59:00,
2013-03-20 23:04:00,20.7,17.9,29.91,WSW,242,2.4,6.2,89,0.00,,SCT055,0.00,VWS V14.01,2013-03-21 03:04:00,
2013-03-20 23:09:00,20.6,17.6,29.91,SW,227,3.5,0.0,88,0.02,SCT,,0.02,WeatherDisplay:10.37,2013-03-21 03:09:00,
2013-03-20 23:14:00,20.6,17.8,29.91,SW,226,3.1,4.7,89,0.00,,SCT055,0.00,VWS V14.01,2013-03-21 03:14:00,
2013-03-20 23:19:00,20.4,17.7,29.91,SW,227,0.0,0.0,89,0.01,SCT,,0.02,WeatherDisplay:10.37,2013-03-21 03:19:00,
2013-03-20 23:24:00,20.3,17.3,29.91,SW,227,0.0,0.0,88,0.01,SCT,,0.02,WeatherDisplay:10.37,2013-03-21 03:24:00,
2013-03-20 23:29:00,20.3,17.5,29.90,SW,226,3.1,0.0,89,0.00,,SCT055,0.00,VWS V14.01,2013-03-21 03:29:00,
2013-03-20 23:34:00,20.1,17.4,29.90,SW,227,0.0,0.0,89,0.01,SCT,,0.02,WeatherDisplay:10.37,2013-03-21 03:34:00,
2013-03-20 23:39:00,20.1,17.4,29.90,SW,227,0.0,0.0,89,0.01,SCT,,0.02,WeatherDisplay:10.37,2013-03-21 03:39:00,
2013-03-20 23:44:00,19.9,17.2,29.91,SW,227,0.0,0.0,89,0.01,SCT,,0.02,WeatherDisplay:10.37,2013-03-21 03:44:00,
2013-03-20 23:49:00,19.6,16.9,29.91,SW,226,3.1,0.0,88,0.00,,SCT055,0.00,VWS V14.01,2013-03-21 03:49:00,
2013-03-20 23:54:00,19.6,16.9,29.91,SW,227,0.0,0.0,89,0.01,SCT,,0.02,WeatherDisplay:10.37,2013-03-21 03:54:00,
2013-03-20 23:59:00,19.5,16.8,29.91,SW,226,3.1,0.0,89,0.00,,,0.00,VWS V14.01,2013-03-21 03:59:00,